Weather in Ghent

Belgium     51°03′23″N   3°42′33″E
temp.,
°C
wind,
m/s
gust,
m/s
humid.,
%
clouds,
%
prec.,
mm/h
press.,
hPa
HPBL,
m
2 december, thu
thu201:00+7nw5984100 3.8 10011083
04:00+6nw71169100 0.4 10011170
07:00+5nw101469100 1.1 10021337
10:00+3nw81390100 0.8 10041095
13:00+6nw7126894 2.9 10041522
16:00+6n6125518 1.4 10061003
19:00+5nw41067100 2.5 1009424
22:00+3wnw237563 0.5 101144
3 december, fri
fri301:00+3w3580100 0.5 1012103
04:00+3wsw498899 0.1 1012242
07:00+2sw4107883 0.1 1012383
10:00+3ssw61474100 0.0 1010612
13:00+4ssw81579100 0.0 1008756
16:00+4ssw91790100 1.4 1004615
19:00+4ssw81589100 3.1 1001701
22:00+4ssw71491100 0.1 998507
4 december, sat
sat401:00+5s51095100 1.2 996308
04:00+5wsw1198100 0.2 99420
07:00+6w3998100 0.3 995290
10:00+7wsw3791100 0.1 996269
13:00+9wsw487571 0.6 994896
16:00+6nw81385100 5.4 9961007
19:00+6wnw61270100 5.6 9991030
22:00+6wsw6117494 0.1 10001001
5 december, sun
sun501:00+6wsw5107798 0.8 1001999
04:00+5w497594 0.8 1001672
07:00+5wsw3783100 1.6 1002667
10:00+5sw368297 0.2 1003299
13:00+6w127784 0.3 1006526
16:00+6n237839 0.1 1009207
19:00+5nne489037 0.1 1014384
22:00+3ne61081100 0.0 1018678
6 december, mon
mon601:00+2ne27866 0.0 1021291
04:00+4ene366887 0.0 1022238
07:00+3ese246977 0.0 102383
10:00+4wsw2270100 0.0 1026117
13:00+5sw346614 0.0 1026555
16:00+4ssw367096 0.0 1025417
19:00+2ssw3876100 0.0 1026301
22:00+2s41075100 0.0 1026346